Wind_Speed
18 16 15 15 14 13 13 14 15 14 13 13 12 11 10 9 8 7 7 8 8 9 10 11 11 11 10 8 6 4 4 5 6 8 8 8 7 7 7 7 6 6 7 7 6 6 6 6 5 5 6 5 5 4 4 3 3 3 3 2 1 1 2 3 4 5 5 5 5 5 6 6 5 4 4 3 2 3 4 4 5 5 5 6 5
19 18 15 13 12 11 11 12 12 12 12 12 11 10 9 8 7 7 8 9 9 9 10 11 12 12 11 9 7 6 5 4 5 7 7 7 7 7 7 6 6 7 7 7 7 6 6 6 5 5 6 5 5 5 4 4 3 3 3 3 3 3 4 5 5 5 6 6 7 7 7 6 5 5 4 3 3 4 4 4 5 6 6 5 4
19 17 15 12 11 11 11 10 10 10 10 11 11 10 9 7 6 7 8 9 9 10 11 11 12 13 13 11 8 6 6 5 5 6 6 7 7 7 7 6 6 6 7 7 6 6 6 6 5 5 5 5 5 5 4 5 4 4 3 3 4 5 5 6 7 6 6 7 8 8 7 6 5 5 4 4 4 4 5 5 6 6 5 5 5
18 16 14 12 10 11 11 10 9 8 9 10 11 10 9 7 6 7 8 9 10 11 11 11 11 12 14 13 9 7 7 5 5 6 6 6 6 6 6 7 6 6 6 5 5 5 5 5 5 5 5 5 6 6 6 6 6 5 5 5 5 6 6 7 7 7 7 7 8 8 6 6 5 5 5 5 5 5 5 5 6 5 5 5 6
18 16 14 12 10 10 12 11 10 9 9 10 11 10 8 7 7 8 9 9 10 11 12 11 12 12 14 14 10 8 7 6 6 6 6 6 5 5 5 5 5 5 4 4 4 4 4 5 5 5 5 5 6 7 7 7 6 6 7 7 7 7 7 7 7 8 7 7 7 7 5 5 5 5 5 5 5 5 6 6 6 6 6 6 7
17 16 14 12 11 11 12 12 11 10 11 11 11 10 8 7 7 8 10 10 9 12 13 13 13 13 14 14 12 9 8 7 6 6 6 6 5 4 4 4 4 4 3 3 3 4 4 4 5 5 5 5 6 6 6 5 6 6 7 6 6 6 6 6 7 7 6 6 7 6 6 5 5 5 5 6 6 6 6 6 6 6 6 7 7
17 16 14 13 11 11 12 12 12 11 11 12 11 10 8 7 6 6 8 8 9 12 13 13 14 14 15 16 14 12 10 9 7 6 5 5 5 4 3 3 4 4 3 2 2 3 3 3 4 4 4 4 5 4 4 5 5 5 5 5 4 5 5 5 5 5 6 6 7 7 7 6 6 6 6 7 7 7 8 8 8 8 8 8 8
17 16 14 12 11 11 12 12 11 11 12 12 11 10 8 6 5 5 5 6 8 11 11 10 13 15 14 14 13 14 13 11 9 7 6 5 3 3 3 3 3 3 3 2 2 2 2 2 2 2 3 3 3 3 3 4 4 4 3 3 3 3 4 4 4 5 6 7 7 8 8 8 7 7 7 7 8 8 8 8 8 8 8 8 8
15 15 14 12 11 11 11 11 11 10 11 11 10 9 7 6 6 5 5 6 8 11 9 7 11 14 12 9 9 13 15 13 10 8 7 6 4 3 3 3 4 5 5 3 2 2 2 1 1 0 1 1 2 2 2 2 2 2 2 3 3 3 4 4 5 5 6 6 7 7 7 7 7 7 7 7 8 8 8 8 9 9 9 9 9
14 14 13 12 11 11 10 10 9 9 10 10 9 8 7 6 6 6 6 7 9 10 9 8 11 12 10 7 7 11 14 13 10 10 9 8 7 5 4 4 5 5 6 5 4 3 3 1 1 1 1 1 1 1 1 1 1 2 2 3 3 4 4 5 5 5 5 5 6 6 6 7 7 7 8 8 9 9 9 9 10 10 10 10 10
15 14 13 12 11 11 10 9 9 8 9 9 9 7 7 7 6 6 6 6 8 8 8 9 9 10 10 8 7 9 11 11 11 11 10 10 9 7 6 6 5 6 6 6 5 5 4 2 1 0 1 2 2 2 2 2 2 2 2 3 4 4 4 4 4 5 5 5 5 6 7 8 9 10 10 11 11 12 12 12 12 12 12 13 12
15 15 14 13 12 12 11 10 10 9 9 10 9 7 7 7 5 5 5 6 7 8 7 7 10 11 10 8 7 8 9 10 12 11 10 11 12 10 9 8 7 6 7 6 6 6 5 3 2 1 1 2 3 3 3 4 4 3 3 4 4 4 4 4 4 5 5 6 7 8 9 10 11 12 13 14 14 14 15 15 15 15 15 15 15
14 14 15 13 12 12 12 11 11 10 10 10 10 8 7 6 5 4 5 6 6 7 6 7 11 11 8 8 8 8 9 10 11 11 11 13 14 13 10 9 9 7 6 6 6 7 6 5 4 2 2 2 3 4 5 5 4 4 4 5 5 5 5 5 6 6 7 8 9 10 11 13 14 14 15 15 15 15 15 15 15 15 15 15 15
14 14 14 13 12 12 12 11 11 10 10 11 10 9 8 7 6 5 5 6 6 7 7 7 9 8 6 5 5 7 9 11 12 13 13 14 15 15 14 12 11 8 7 7 6 6 7 6 5 3 2 2 2 4 4 4 4 4 3 4 5 6 6 6 7 8 9 10 11 13 14 14 14 14 13 13 13 13 12 13 13 13 13 14 14
14 15 14 13 12 13 12 11 10 10 10 11 11 10 10 8 7 6 6 6 6 7 8 6 5 6 4 1 2 3 5 10 13 15 15 15 16 17 17 15 11 9 8 8 7 6 6 7 5 3 1 1 2 3 4 4 5 5 4 5 6 7 7 8 9 10 11 12 13 13 13 12 12 12 12 11 11 11 11 11 11 11 12 12 12
14 14 14 13 12 13 12 11 10 9 11 12 12 11 10 9 8 7 6 6 6 7 8 6 6 6 3 0 0 1 2 7 11 14 14 14 16 17 18 16 11 10 10 9 8 6 6 6 5 3 1 2 3 3 5 5 6 6 6 6 7 8 8 9 10 11 11 12 11 11 10 10 10 10 10 10 10 10 10 11 11 11 12 12 12
13 13 13 13 13 13 12 11 10 10 11 12 12 11 10 9 8 7 6 6 6 6 6 6 7 8 4 1 1 0 2 3 5 9 12 14 15 15 17 17 13 11 11 10 8 7 6 6 5 3 2 1 2 4 6 6 7 7 7 7 8 9 9 10 10 11 11 10 9 8 8 8 8 8 8 9 10 11 12 12 12 12 12 12 12
14 13 13 13 13 14 13 12 11 11 12 12 10 10 9 8 7 6 5 4 4 5 5 5 6 6 5 4 3 3 3 2 1 4 8 12 13 14 16 18 16 13 11 11 10 9 8 7 6 4 1 2 3 5 6 7 8 8 8 7 8 9 9 10 10 9 8 7 7 6 6 7 7 8 9 10 11 12 13 14 14 13 12 12 12
13 13 14 13 13 13 13 13 12 12 12 12 11 10 9 7 5 4 3 2 4 6 6 5 5 4 4 5 6 6 5 3 2 1 2 5 9 13 17 17 17 15 13 12 12 12 11 10 8 5 2 2 3 5 7 8 8 7 7 7 8 8 8 8 7 7 7 6 6 6 6 7 7 8 10 11 12 13 15 15 14 13 12 12 12
11 12 13 13 13 12 12 13 14 13 11 12 12 10 8 7 5 4 3 1 2 5 6 3 4 4 4 4 4 4 4 2 1 1 3 2 3 7 14 18 18 17 14 12 13 14 13 11 9 7 4 2 2 5 6 7 6 6 8 7 6 7 7 6 6 6 6 6 6 6 7 7 8 9 11 12 13 14 14 14 13 12 12 12 12
11 11 12 13 14 12 11 12 13 12 11 12 12 10 8 7 7 5 5 3 2 3 4 2 3 4 4 5 4 4 4 2 3 4 3 2 1 2 7 13 16 17 16 14 13 14 14 12 10 9 7 4 4 5 4 5 5 6 9 7 5 7 7 7 7 6 6 6 6 6 7 8 9 10 11 12 13 13 13 13 12 12 12 12 12
12 12 11 12 14 12 11 12 12 11 11 12 12 9 8 8 8 7 7 5 3 3 3 1 2 2 3 5 5 5 5 3 3 5 4 2 1 3 3 8 12 14 17 16 14 14 14 13 11 9 8 7 7 6 4 5 5 6 8 7 5 7 8 8 9 8 7 6 7 7 8 8 9 10 11 11 12 12 12 11 11 12 12 13 14
13 13 12 12 13 13 12 12 12 12 11 12 12 9 7 8 8 8 8 7 5 5 4 2 1 2 3 4 4 5 6 5 6 6 4 3 2 3 4 5 11 13 15 16 14 14 13 13 11 8 8 8 7 6 6 6 5 6 7 7 7 8 9 10 10 9 8 7 7 8 8 8 9 9 10 10 11 11 11 10 10 11 12 14 14
13 14 14 12 13 14 13 12 12 12 12 12 11 9 8 9 9 9 9 8 7 7 7 5 3 3 3 4 5 7 8 9 9 9 8 7 4 4 4 2 8 11 13 15 14 14 12 11 9 7 6 6 5 6 7 6 5 5 5 6 8 9 9 10 10 9 8 8 8 9 9 9 9 9 9 9 10 10 10 9 9 10 12 14 14
15 15 15 13 13 14 14 13 13 13 12 11 10 10 11 11 10 10 10 9 8 8 8 7 5 5 4 5 7 8 9 9 10 11 11 9 6 5 4 2 3 6 9 10 10 12 13 11 9 7 6 5 6 8 8 6 4 4 4 5 8 10 10 10 10 10 8 9 10 10 11 11 10 9 9 9 9 10 10 9 8 10 11 13 13
17 16 14 13 13 13 13 13 13 13 12 11 10 11 13 11 11 12 12 11 10 10 9 8 7 6 6 7 8 7 7 7 8 8 8 7 6 4 3 3 2 1 3 5 5 7 11 12 11 8 5 6 8 8 7 6 5 6 6 7 8 10 11 11 10 10 10 11 12 13 13 13 12 11 10 9 9 9 10 10 9 10 11 12 13
18 16 14 13 13 13 13 13 12 12 11 11 11 12 12 12 12 13 12 12 12 12 11 10 9 8 6 7 8 8 6 6 6 7 5 3 3 3 3 2 2 3 4 3 2 3 8 12 12 8 5 6 7 5 5 5 5 6 8 9 10 10 12 13 11 10 11 12 13 14 14 14 14 13 11 10 10 10 10 10 10 11 11 12 12
17 15 14 14 13 13 14 13 12 12 12 12 12 12 13 13 13 13 12 11 12 12 12 12 10 8 7 7 8 9 8 5 4 5 5 5 5 4 2 2 1 2 4 4 3 1 4 9 10 8 4 5 5 4 5 7 7 8 9 11 11 11 13 14 13 11 11 13 14 15 16 15 14 14 13 12 11 11 11 11 11 12 12 12 13
18 16 15 15 14 13 15 15 13 13 13 13 13 12 13 13 13 13 12 11 10 10 11 12 12 10 9 8 9 10 9 7 5 3 4 6 5 4 3 2 1 1 0 2 3 1 0 5 7 7 5 5 5 6 8 10 10 10 10 11 12 12 13 15 16 13 13 14 16 17 18 16 14 14 14 12 12 12 12 12 12 12 13 13 13
19 18 17 17 16 16 17 17 15 15 16 15 14 14 14 13 13 13 13 11 11 11 11 12 12 11 10 9 9 10 9 8 7 5 5 6 6 6 5 3 2 1 2 1 2 2 1 1 2 3 4 5 7 9 11 11 10 9 10 11 11 12 14 17 17 15 15 17 18 18 19 19 16 14 14 13 12 12 12 12 12 13 13 13 14
20 20 20 19 19 19 20 19 18 17 17 17 16 16 16 15 15 15 15 14 13 12 12 12 12 12 12 11 11 11 11 10 8 7 7 7 7 8 7 5 3 3 1 1 1 2 2 2 2 3 4 6 8 9 10 9 9 10 12 12 11 13 15 17 17 16 16 18 17 17 18 19 19 16 14 13 13 13 12 12 12 13 13 13 14
21 21 21 20 20 21 21 20 19 19 18 18 17 17 17 16 16 16 16 15 15 14 13 13 13 13 13 13 11 11 10 10 10 10 10 8 7 8 8 6 4 3 4 3 3 5 7 7 7 7 7 9 9 8 8 8 9 11 12 12 12 14 16 17 17 17 18 18 18 17 18 19 20 18 16 14 14 14 14 13 12 13 13 13 14
21 22 22 21 21 21 21 20 20 20 18 17 17 17 18 17 16 15 15 14 15 15 14 13 14 13 13 14 13 11 10 10 11 12 11 9 7 8 8 7 6 5 6 6 6 8 11 10 8 9 9 10 10 9 9 10 10 10 11 13 15 16 17 18 18 18 18 18 18 19 19 20 20 19 17 16 15 16 16 15 14 13 13 14 14
22 22 23 23 22 22 22 22 20 20 19 18 16 17 18 18 16 15 15 14 14 15 15 15 15 13 13 14 14 11 10 10 11 12 12 11 9 9 11 10 10 9 9 9 8 9 12 13 12 12 12 12 12 11 11 14 15 15 16 17 18 19 19 18 18 18 18 18 20 20 19 18 18 17 16 16 17 18 18 18 17 15 14 15 15
23 23 23 23 23 23 23 23 21 20 20 19 18 18 18 18 17 17 17 16 15 15 16 16 16 14 14 15 15 13 12 12 13 13 14 14 12 12 13 13 13 14 13 12 11 11 13 16 16 16 16 15 15 15 16 18 18 18 18 19 18 17 16 16 17 19 20 20 21 20 18 17 17 16 15 15 16 18 19 20 20 19 17 16 16
24 24 24 23 23 24 25 24 22 21 21 20 19 19 19 19 19 18 18 18 17 16 16 16 16 15 15 16 16 15 14 14 15 15 15 15 14 14 15 14 14 15 15 15 16 14 14 15 16 16 16 17 18 19 19 20 20 19 17 17 16 16 16 16 18 20 20 20 20 19 17 17 18 18 17 16 17 18 20 20 20 21 21 20 19
25 25 26 25 23 25 27 25 23 23 23 23 22 21 21 20 19 19 18 19 18 18 17 16 16 16 16 16 16 15 14 14 15 15 15 14 14 14 16 16 15 15 15 16 17 17 15 15 16 16 16 17 19 20 19 19 20 20 17 16 15 16 18 19 20 21 21 20 19 18 17 17 18 19 18 18 18 19 20 20 20 20 22 22 22
27 26 27 27 26 25 27 26 25 23 23 23 24 23 23 22 21 20 19 20 19 19 18 17 17 17 17 17 16 15 15 16 16 15 14 14 15 15 15 16 16 16 15 15 15 16 17 16 16 17 18 18 19 21 20 19 20 20 20 20 19 19 21 23 23 22 21 20 20 19 18 18 19 19 19 20 20 20 21 21 20 20 21 22 23
28 28 27 28 27 27 27 27 26 25 23 23 24 24 24 24 23 22 21 21 21 20 20 19 19 18 18 18 17 16 16 17 17 17 16 16 16 16 16 16 16 16 16 15 14 15 17 17 17 18 20 20 20 21 23 22 21 22 22 21 22 24 24 24 24 22 21 21 21 20 19 19 20 20 20 22 22 21 21 21 21 21 22 23 23
30 30 29 29 29 29 29 29 28 27 25 24 25 25 25 25 25 25 24 23 23 23 22 22 21 20 19 19 18 18 18 19 20 19 19 18 18 18 18 18 18 17 17 17 17 17 18 19 20 21 21 22 22 23 24 24 23 24 23 20 22 26 26 24 25 24 23 22 21 21 20 20 20 21 21 23 23 22 21 22 22 23 23 23 23
31 31 30 30 30 31 31 31 31 29 28 28 27 27 26 26 26 27 27 26 25 25 24 23 23 23 22 21 21 21 21 22 21 21 21 21 21 22 21 21 20 20 20 20 20 21 21 21 22 23 22 22 24 25 25 25 25 26 26 23 23 27 28 27 26 24 23 22 20 19 19 18 19 20 22 25 26 24 23 23 24 24 24 23 23
25 29 30 29 30 31 33 33 33 32 32 31 29 28 28 28 28 28 28 28 27 26 26 26 26 25 25 24 24 24 24 23 22 22 23 23 23 24 24 23 23 23 23 24 24 23 23 22 23 24 21 22 26 26 26 27 27 27 28 26 25 27 27 26 25 24 20 18 17 18 19 18 19 22 25 27 28 26 25 25 24 23 23 22 21
17 21 25 28 29 29 31 33 35 35 34 34 32 31 30 30 30 30 30 30 29 28 28 28 28 28 27 27 26 25 24 23 23 23 24 24 25 25 25 25 26 26 26 26 27 27 25 24 24 24 22 23 27 28 27 29 29 29 29 27 26 26 25 22 20 20 19 17 18 20 23 23 23 25 28 29 28 27 25 24 23 22 22 21 21
16 16 19 25 29 29 28 29 32 35 36 35 34 33 32 31 31 31 31 31 31 31 30 30 30 30 29 29 27 26 25 25 24 25 25 25 26 26 26 27 28 29 30 29 29 29 27 26 26 26 25 26 28 29 29 29 30 29 28 27 26 25 24 21 20 22 24 23 20 20 25 30 28 27 30 30 27 26 25 23 22 22 22 22 21
16 17 17 20 25 29 29 28 29 32 35 36 36 34 33 32 32 32 33 32 31 31 31 31 31 31 30 30 30 29 28 27 27 26 26 27 28 27 26 25 26 29 30 32 33 33 31 29 28 28 29 28 29 30 31 30 29 27 27 28 27 25 23 23 24 27 28 25 21 19 25 33 32 28 30 30 27 26 25 24 23 23 22 23 21
13 15 17 18 21 24 25 25 25 27 31 35 36 36 35 33 32 32 33 32 32 32 31 32 32 32 32 32 32 32 31 30 30 29 29 29 29 29 27 26 26 27 28 30 32 33 34 34 33 33 34 33 33 34 34 31 30 29 29 30 28 25 25 25 26 28 29 30 28 21 21 30 32 26 28 30 28 27 26 25 25 23 21 21 21
10 12 13 16 18 19 19 18 18 19 24 29 33 35 36 35 33 33 33 33 32 33 33 33 33 33 33 33 34 34 34 33 33 32 32 32 32 32 32 32 32 32 31 31 30 31 33 34 36 38 38 38 38 38 36 34 32 32 32 31 28 26 27 27 27 30 33 35 31 21 18 25 29 26 28 31 29 27 27 26 24 21 18 18 19
8 10 11 12 14 16 16 16 16 16 18 20 24 29 33 34 34 34 34 34 34 34 34 34 35 34 34 34 35 35 36 36 35 34 34 34 35 35 36 36 37 36 36 34 31 31 31 32 34 36 36 36 36 36 35 34 32 32 32 31 29 28 27 24 24 29 32 32 31 24 18 22 27 26 27 30 28 27 28 24 19 17 16 17 17
7 9 10 11 11 12 13 14 17 19 19 17 16 18 23 29 33 35 36 36 36 36 36 36 36 36 36 36 36 36 36 36 36 36 35 35 36 37 38 38 38 38 38 37 35 35 35 35 35 36 36 35 35 34 33 32 30 30 31 31 31 31 26 19 19 26 29 29 32 27 19 21 27 27 26 27 27 26 26 22 19 18 16 16 17
8 8 9 10 10 11 11 13 15 19 20 17 14 14 16 21 27 32 36 38 37 37 37 37 38 38 38 38 38 38 38 38 37 36 36 36 37 38 38 38 38 38 38 37 37 37 37 36 36 36 35 35 35 34 33 31 29 29 31 33 33 31 26 20 21 25 26 29 34 28 20 23 27 24 22 23 22 24 25 22 20 18 17 16 18
9 9 10 11 11 10 10 12 14 17 17 15 15 16 17 17 20 23 26 30 33 35 35 36 36 37 38 39 40 40 40 40 39 38 38 37 38 38 39 38 37 37 38 36 36 36 36 35 35 35 34 35 34 33 33 32 30 30 32 34 33 31 28 27 26 21 15 21 30 26 18 21 23 20 18 15 12 16 21 20 19 19 18 19 19
Wind_Direction
143 142 140 138 135 135 133 132 132 132 133 135 140 142 143 144 145 150 156 164 172 174 168 163 165 170 180 185 185 184 164 161 178 182 179 178 175 173 182 190 184 181 187 192 198 199 197 201 202 201 199 202 211 215 210 206 199 187 190 204 203 276 294 300 303 307 309 313 314 310 312 314 315 316 316 318 307 302 312 312 308 308 291 284 286
145 144 144 144 143 140 133 131 131 133 135 136 138 140 142 143 151 159 162 163 165 171 175 177 177 179 188 191 186 180 159 136 154 178 183 182 184 185 190 199 192 187 192 195 199 201 203 210 211 213 211 213 218 222 217 207 202 202 208 222 237 269 278 286 291 294 300 304 304 305 306 305 306 306 301 297 287 288 299 295 290 300 300 290 293
150 148 147 148 148 145 139 135 134 137 140 142 143 143 146 147 158 170 174 171 163 163 169 179 183 184 192 195 191 186 174 146 131 150 171 178 185 189 187 190 195 193 194 198 200 205 209 217 224 227 226 226 227 230 225 223 225 228 241 250 254 263 273 285 289 293 298 298 299 301 299 299 302 298 294 290 282 286 292 291 293 302 304 294 302
153 153 154 158 161 158 155 153 149 150 153 155 154 152 155 157 167 174 172 172 173 174 174 182 187 187 194 198 197 191 184 168 137 130 139 155 168 178 178 178 187 193 197 201 202 208 213 220 228 232 236 236 235 242 241 240 246 250 253 255 261 268 276 286 291 294 294 294 297 297 291 291 296 293 294 294 288 291 291 292 295 298 299 291 294
158 157 161 170 176 171 166 165 162 163 165 164 161 159 161 165 177 182 177 178 186 190 189 191 193 192 196 200 200 196 193 186 161 137 130 134 143 154 162 166 175 184 191 199 205 214 220 226 233 235 243 244 241 249 250 248 251 253 255 256 261 269 277 284 289 292 292 296 302 303 296 292 295 294 297 300 298 299 295 294 293 288 286 283 282
163 161 166 176 181 176 171 168 165 167 167 163 162 165 169 172 181 190 195 199 205 204 200 197 197 199 202 202 203 199 199 198 178 153 143 139 136 138 145 153 158 163 175 190 203 219 228 236 243 246 249 249 248 252 256 257 258 259 260 263 266 273 282 286 288 295 302 312 320 323 318 314 314 311 311 310 306 308 308 306 305 302 298 293 290
166 166 172 178 178 175 173 168 166 169 167 165 168 174 177 180 185 193 201 203 206 206 203 202 201 204 206 206 209 206 204 206 192 170 157 149 142 142 146 155 160 154 154 166 183 201 223 238 249 254 253 254 256 257 261 264 266 266 266 270 274 282 287 291 298 306 316 325 334 337 336 334 333 331 329 325 321 320 320 319 316 315 312 308 303
168 171 175 176 174 172 172 171 170 169 170 173 176 178 180 183 186 199 210 201 192 191 191 196 199 200 202 203 209 210 209 211 206 193 181 173 166 166 173 185 193 189 181 173 174 173 179 215 238 255 259 258 259 259 261 261 262 265 270 279 285 291 297 304 313 321 327 333 338 342 344 343 340 339 336 332 329 326 324 323 321 318 316 313 309
170 174 175 172 169 168 169 171 168 164 167 173 174 179 184 188 191 195 199 185 170 169 167 167 180 188 190 183 190 204 211 214 213 212 207 205 211 209 200 203 214 217 215 216 214 198 181 173 183 222 269 272 265 258 257 255 258 270 279 290 297 304 312 319 323 329 333 337 340 342 345 344 340 338 334 330 326 323 321 320 318 316 315 313 310
175 176 175 174 172 170 171 170 168 165 169 173 171 179 185 191 197 185 173 167 162 164 168 167 167 175 179 169 169 188 204 212 215 219 220 225 230 224 210 205 214 221 226 234 236 230 218 199 179 117 55 31 6 343 315 299 289 296 303 305 313 318 323 328 331 335 338 339 339 338 337 334 331 327 323 321 319 317 316 313 311 309 308 307 305
179 177 175 178 179 178 182 183 180 177 181 182 178 184 188 189 189 177 170 169 172 174 176 183 181 174 169 170 176 180 192 207 216 223 228 235 237 237 231 221 222 228 235 240 239 240 235 227 222 163 40 26 14 11 12 5 357 349 344 337 334 334 335 337 338 339 336 333 329 325 322 319 318 316 315 315 313 311 309 306 304 302 300 299 297
182 182 178 180 182 182 188 194 194 191 193 194 194 192 185 180 173 170 173 171 179 181 176 188 192 187 178 178 190 192 200 212 218 225 236 244 243 242 241 237 236 238 241 243 241 243 239 238 239 238 341 354 350 343 346 357 6 14 15 9 2 355 350 345 341 336 328 322 318 315 314 312 312 312 313 312 311 309 307 305 302 300 298 297 295
187 186 182 183 184 184 191 196 198 198 195 194 197 193 182 178 170 172 181 175 177 174 164 164 170 180 188 187 200 212 219 223 223 228 236 243 245 244 246 246 244 242 244 245 245 247 246 246 248 262 301 322 337 332 326 333 347 10 24 20 11 2 351 342 333 326 321 317 315 313 311 312 313 313 313 313 313 313 311 310 307 304 302 300 299
187 186 184 185 185 189 196 197 196 195 191 188 189 189 189 188 183 188 192 187 185 177 169 162 163 177 188 189 216 231 234 235 234 238 240 240 242 244 246 246 244 241 243 247 247 248 251 253 255 272 297 312 341 339 325 320 325 338 4 12 3 353 342 335 327 322 319 316 314 314 314 314 315 315 316 316 317 319 319 319 317 314 312 310 309
181 183 185 186 187 190 193 195 194 193 190 185 181 185 194 198 199 204 197 190 196 187 182 187 189 186 171 190 251 244 257 253 245 246 249 245 242 243 244 242 240 237 239 246 244 243 250 253 258 269 304 38 18 347 319 313 312 308 322 345 347 342 336 330 325 321 317 316 315 317 318 319 319 318 318 320 321 324 326 326 326 324 322 320 319
179 185 187 188 190 191 193 196 198 199 196 186 179 184 194 198 201 203 195 194 200 193 193 209 217 201 170 81 349 73 294 266 254 249 247 245 247 246 242 237 234 230 232 241 241 240 249 254 257 247 164 76 37 353 324 313 308 301 303 323 335 334 331 327 325 323 320 319 320 322 324 325 324 325 325 327 329 329 330 329 327 325 323 322 322
188 191 190 191 192 193 198 200 199 201 198 190 183 187 193 195 199 201 194 198 205 205 209 215 215 214 215 197 73 59 249 260 264 251 241 239 243 245 240 236 233 224 226 236 238 237 237 239 243 231 196 67 14 343 327 318 314 306 303 317 330 329 326 324 322 324 325 326 328 330 333 333 332 333 332 331 329 328 328 326 324 321 320 321 322
199 198 193 195 196 197 202 204 201 195 194 196 194 193 194 196 202 206 202 210 224 224 219 208 206 222 245 254 261 270 264 264 256 255 252 242 238 239 237 237 234 227 228 233 235 236 231 225 225 225 239 9 352 329 318 317 316 312 310 316 324 324 323 323 324 329 335 336 340 340 340 337 332 330 328 326 325 324 324 323 322 321 321 323 325
202 200 197 198 199 200 203 204 200 195 196 199 196 191 192 197 204 209 210 233 247 233 221 213 221 240 275 278 279 286 288 274 230 233 270 246 238 234 233 235 235 233 234 231 230 232 231 228 226 231 276 2 341 314 312 317 318 320 323 319 323 330 330 331 333 339 344 342 341 338 332 328 322 320 320 320 322 322 323 323 323 324 325 327 327
198 200 201 201 201 203 205 204 202 202 202 196 190 190 193 199 205 212 223 249 253 223 210 216 248 260 284 295 293 296 301 304 312 53 118 167 253 235 227 231 235 236 235 231 228 228 232 235 232 237 262 305 293 295 309 320 324 340 346 340 346 355 355 352 349 344 342 337 330 325 320 316 315 314 316 319 322 324 324 324 324 325 326 328 329
201 203 203 200 204 207 208 207 205 205 202 193 190 196 208 213 213 216 220 220 197 184 187 217 265 264 287 300 299 305 315 336 359 16 65 105 317 273 222 220 229 236 236 235 234 231 235 243 243 244 252 262 271 275 297 323 331 342 348 354 10 9 7 7 3 351 338 330 323 319 314 312 312 314 318 321 324 324 324 325 325 326 327 329 331
208 211 206 203 208 211 209 206 202 200 198 194 196 206 221 221 221 225 227 226 211 183 178 197 253 265 296 299 300 320 333 338 353 2 23 49 305 301 258 207 213 228 231 232 236 236 242 248 244 239 243 252 258 257 279 317 323 327 339 348 353 358 2 6 8 5 352 340 331 323 318 315 315 317 322 325 326 326 326 325 326 328 330 331 333
213 217 214 210 212 213 212 206 200 197 194 196 201 211 221 218 223 233 234 233 228 219 214 202 222 271 293 294 298 321 329 325 339 348 344 340 309 310 317 218 213 229 231 226 229 237 240 235 225 223 231 240 247 256 281 301 301 308 332 345 347 353 358 0 4 8 6 0 352 342 332 324 322 326 329 329 328 328 327 325 325 329 331 333 335
214 219 218 215 214 214 216 212 204 200 198 199 203 209 214 216 226 233 229 230 230 227 224 217 227 259 284 299 304 308 311 310 316 322 314 309 302 304 332 258 222 237 234 223 225 236 235 213 205 223 234 238 259 277 289 293 290 305 329 342 347 351 351 351 352 355 0 2 359 356 350 342 335 333 333 332 330 329 328 323 323 328 331 334 337
215 218 219 219 217 214 215 213 208 207 205 205 209 213 214 219 231 228 220 227 231 227 226 221 233 263 287 302 311 314 320 319 314 314 311 307 303 295 318 337 247 230 218 209 211 222 221 205 204 228 243 268 301 299 294 294 289 306 328 330 338 345 344 342 339 336 339 343 344 347 350 350 346 338 334 331 329 328 327 320 315 322 329 334 336
217 218 218 221 222 216 213 211 210 212 212 213 218 216 215 225 235 225 219 228 233 228 226 224 236 264 286 295 305 316 332 345 343 336 323 306 304 294 296 328 332 269 217 208 190 191 201 204 210 223 245 291 311 305 299 312 309 308 320 318 320 335 342 339 331 326 327 329 332 333 337 342 345 341 335 331 327 325 325 319 310 312 322 331 334
219 219 217 219 221 216 213 211 211 215 216 219 221 218 221 232 234 226 227 237 237 232 230 230 239 257 276 287 296 302 314 347 8 7 356 336 340 331 300 315 350 354 334 279 233 198 206 212 216 221 253 304 317 312 307 323 329 315 313 312 309 322 338 339 330 321 320 321 323 324 325 329 335 338 335 330 327 323 322 319 311 307 311 321 328
216 219 220 219 216 213 214 217 221 223 221 221 222 223 232 238 232 231 237 241 239 238 237 237 240 251 269 284 292 293 296 318 352 6 4 352 4 25 357 318 299 334 344 333 320 323 228 227 226 226 261 309 314 311 305 308 314 313 313 311 308 313 329 337 333 324 319 319 319 319 318 317 322 329 332 330 328 324 322 320 316 310 307 310 318
214 217 220 218 213 212 218 224 228 227 223 223 225 229 235 234 229 229 235 238 241 246 248 244 241 251 271 284 288 287 289 301 309 321 342 330 331 356 358 343 348 174 34 326 308 347 256 238 234 239 262 293 310 311 305 304 304 304 307 309 309 313 321 329 331 326 320 320 320 317 315 312 312 317 323 327 328 326 324 322 318 314 309 308 312
216 218 218 215 214 217 221 222 224 225 225 225 227 228 226 224 223 224 229 235 241 247 252 251 246 252 269 280 282 282 285 296 294 282 299 304 298 308 312 304 315 279 161 202 280 309 13 213 213 249 279 299 318 314 305 302 302 303 309 311 313 317 320 324 328 324 320 322 321 317 313 310 307 308 314 320 325 326 325 325 322 317 312 310 311
218 217 215 215 219 222 221 220 221 223 227 229 229 227 224 224 225 226 228 232 236 241 246 250 250 252 262 272 279 283 284 285 283 282 292 293 287 293 294 275 277 289 249 182 233 273 306 329 314 307 307 308 314 318 312 305 302 308 312 313 315 318 321 325 327 323 322 325 324 320 316 312 308 303 304 311 318 321 322 324 323 318 314 312 312
218 214 214 216 219 220 219 219 221 223 228 231 230 228 225 226 229 231 232 232 235 238 241 247 251 251 256 264 273 283 285 275 271 280 290 291 284 283 281 263 253 280 286 264 242 267 285 299 298 300 310 310 308 316 324 321 315 313 311 312 316 315 317 321 321 320 322 323 323 322 321 318 313 305 299 301 309 316 318 319 320 318 314 311 312
221 218 217 218 217 217 217 219 222 224 228 230 230 226 223 225 230 232 231 230 233 236 238 243 248 249 252 258 265 276 281 273 267 273 281 284 279 273 268 255 248 270 285 274 267 282 291 292 294 303 313 313 308 307 314 317 316 314 309 309 311 309 308 310 310 312 317 318 318 319 321 322 319 310 300 296 301 308 312 312 313 314 312 309 309
224 222 220 219 219 217 216 218 221 224 227 230 230 226 224 227 229 230 228 227 231 236 238 241 245 247 247 251 258 264 270 271 268 269 273 274 272 271 269 262 258 263 270 272 270 277 289 295 302 310 314 316 313 311 315 315 312 310 306 305 306 306 306 305 303 307 311 311 312 314 316 320 322 319 308 300 299 302 306 308 307 307 308 308 308
225 224 223 223 223 220 218 218 219 222 225 229 230 228 228 229 230 231 230 229 231 236 241 243 244 244 244 247 252 257 263 266 266 268 270 270 270 270 271 273 273 271 268 268 266 267 281 294 302 307 309 312 313 314 318 318 316 314 311 308 308 308 308 308 306 308 311 312 312 310 308 310 316 320 315 307 304 304 305 307 307 304 303 303 305
225 225 225 228 228 224 221 219 220 222 224 226 229 231 232 233 235 235 234 232 232 236 242 245 245 245 244 246 249 253 259 262 263 267 268 268 269 269 270 276 282 283 279 271 267 268 276 286 295 301 304 306 309 311 314 318 319 318 314 312 310 308 309 309 309 311 315 315 312 306 302 303 309 314 315 312 310 309 307 307 306 304 302 301 301
230 229 227 229 230 226 223 222 223 225 227 228 229 233 235 236 238 239 239 238 237 238 241 244 246 248 248 250 251 249 252 256 260 266 266 266 270 270 270 273 280 287 290 283 275 272 274 280 288 295 298 299 302 305 309 315 319 316 311 308 305 304 305 307 308 309 312 311 306 300 297 301 306 309 310 309 308 307 305 303 302 301 301 300 300
233 232 229 229 230 228 225 226 227 229 230 229 230 234 237 238 239 241 243 245 245 244 242 241 245 250 252 254 254 249 247 250 255 261 263 266 271 271 269 272 277 281 286 289 282 273 271 276 283 288 294 297 299 301 303 309 311 308 306 304 304 305 306 308 309 309 309 309 304 298 294 299 304 305 307 310 309 308 306 301 297 298 300 301 301
234 234 232 231 232 232 230 230 232 233 231 230 231 235 238 238 239 240 243 246 249 250 247 245 247 250 252 252 251 249 249 252 256 258 259 262 266 266 266 271 276 278 279 282 282 275 272 276 281 285 291 294 294 295 298 301 301 298 296 296 299 305 308 309 310 310 309 306 302 297 293 295 300 303 308 312 311 308 307 303 299 300 302 303 302
232 234 233 234 235 235 235 236 236 235 233 231 233 235 237 238 238 239 242 244 248 251 251 250 250 250 251 250 249 250 253 256 260 260 260 261 262 262 263 264 266 270 272 273 275 275 275 276 278 279 281 284 286 287 290 292 292 292 292 290 292 299 303 304 305 306 307 305 301 296 292 291 294 301 309 314 312 309 306 304 301 301 303 304 304
231 231 232 234 236 236 237 237 238 237 234 233 234 234 234 235 235 237 240 242 246 249 251 252 253 253 253 251 250 253 257 260 261 260 260 260 260 260 260 259 258 259 262 264 267 269 270 271 272 272 271 273 277 279 281 283 284 287 291 290 287 293 298 299 299 302 306 306 302 296 293 291 293 303 311 314 313 312 309 308 307 306 307 308 307
231 230 230 232 234 236 236 236 236 236 235 236 237 236 235 236 237 237 238 240 243 246 248 251 254 255 255 255 254 255 258 259 259 258 260 261 261 261 261 261 259 257 258 260 260 261 262 263 264 265 264 265 271 274 275 279 283 285 286 287 287 291 295 296 298 302 304 305 303 299 298 298 301 307 311 312 312 313 314 315 316 316 316 316 312
234 232 232 231 233 235 236 236 235 235 236 238 239 239 238 239 239 239 239 241 242 244 246 249 252 255 256 257 258 258 258 258 257 259 261 263 264 264 264 264 263 261 260 260 259 259 258 257 260 262 259 261 269 274 275 279 283 283 284 286 286 287 289 290 294 298 299 301 301 300 300 302 305 307 308 309 311 313 316 319 322 322 322 320 315
244 243 240 235 233 234 236 237 237 236 237 239 240 241 241 241 241 241 241 243 244 245 246 247 250 253 256 258 260 259 258 258 259 261 262 264 266 266 266 267 265 264 262 260 260 261 260 258 258 259 259 261 268 273 275 278 281 283 286 286 285 284 284 283 284 289 295 298 298 297 298 300 303 304 304 306 309 312 315 319 322 322 322 321 316
250 251 253 247 239 236 236 237 239 238 239 240 241 242 243 243 244 243 243 245 247 247 248 248 249 252 254 257 258 259 260 260 260 261 262 264 267 269 269 269 266 265 263 261 261 261 262 261 259 260 263 264 266 272 277 280 281 283 286 286 285 284 282 281 283 288 294 296 294 292 293 296 298 300 300 303 308 311 312 315 320 321 319 319 317
250 250 252 253 247 241 240 241 242 242 241 241 242 242 243 244 245 245 244 246 248 250 252 252 252 252 253 255 256 258 259 260 260 260 260 263 265 267 269 271 271 271 269 266 264 261 260 260 259 261 266 267 268 274 280 281 280 283 285 284 285 286 284 284 287 289 291 291 291 289 285 290 296 295 295 301 307 309 310 313 318 319 316 316 317
257 257 254 252 250 248 248 249 248 246 245 244 244 244 244 245 246 246 245 245 247 250 253 254 255 255 255 254 255 257 259 259 260 260 260 261 262 264 267 269 272 273 273 273 271 268 266 264 263 265 268 270 272 275 280 281 282 286 288 285 284 285 284 284 286 287 288 290 291 285 273 285 294 291 291 299 304 305 310 315 318 318 316 314 314
276 272 265 258 257 257 256 255 255 252 247 243 243 244 245 246 245 245 245 245 245 247 250 253 255 256 257 256 255 256 258 259 260 260 260 261 261 263 265 267 269 270 270 270 271 271 271 270 270 271 272 274 276 277 280 282 282 286 286 283 283 283 280 281 283 284 287 291 293 285 271 280 291 287 288 298 301 301 308 314 318 320 320 317 313
306 296 284 273 270 269 264 260 258 257 255 251 248 246 245 244 244 244 244 244 244 245 248 251 254 256 258 258 258 258 258 259 261 262 261 261 261 262 263 264 266 266 266 267 268 269 270 270 270 272 273 275 276 277 279 279 279 281 278 276 281 283 277 274 276 278 281 286 290 287 275 277 286 285 286 294 297 298 304 311 314 316 316 316 313
333 325 311 295 288 284 277 271 265 262 264 268 266 258 248 242 240 241 243 244 244 245 247 250 252 254 256 259 260 259 259 260 262 263 263 262 262 262 262 262 263 263 264 267 268 269 270 269 269 270 270 272 273 274 276 276 276 276 272 272 278 279 271 264 264 271 277 280 284 284 273 273 282 284 283 288 292 295 301 306 309 310 309 310 311
348 341 334 322 312 303 293 284 276 274 279 283 276 266 261 255 250 248 248 247 247 248 249 250 251 252 254 257 258 258 259 261 263 263 263 262 261 261 262 260 260 262 265 267 268 270 271 271 271 271 271 272 274 274 275 275 276 274 271 272 275 271 265 261 262 265 269 277 283 281 266 268 279 281 279 281 287 296 299 301 303 303 301 301 304
Height
860 860 860 861 862 863 864 865 866 867 867 867 868 868 869 869 870 870 870 871 871 871 872 872 872 872 872 872 872 872 872 872 872 872 872 872 872 872 873 873 873 873 873 873 873 873 873 873 873 873 873 872 872 872 872 872 872 872 872 872 872 871 871 871 870 870 869 869 868 868 867 867 866 866 865 864 864 863 863 862 862 861 860 859 858
862 862 862 862 863 864 865 866 866 867 867 868 868 869 869 870 870 870 871 871 871 872 872 873 873 873 873 873 873 873 873 873 873 873 873 873 873 873 873 873 873 873 873 873 873 873 873 873 873 873 872 872 872 872 872 872 872 872 872 871 871 871 871 871 870 869 869 868 868 867 867 866 865 865 864 864 864 863 863 862 861 861 860 859 858
864 864 864 864 865 865 866 866 867 868 868 868 869 870 870 870 871 871 871 871 872 872 872 873 873 873 873 873 874 874 874 874 873 874 874 874 874 873 873 873 873 873 873 873 873 873 873 873 873 873 872 872 872 872 872 872 872 871 871 871 871 871 871 870 869 869 868 868 867 867 866 865 865 864 864 864 863 863 862 862 861 861 860 859 859
865 865 866 866 867 867 868 868 868 869 869 870 870 871 871 871 871 872 872 872 873 873 873 873 873 874 874 874 874 874 874 874 874 874 874 874 874 874 874 873 873 873 873 873 873 873 873 873 873 873 872 872 872 872 872 872 871 871 871 871 871 870 870 870 869 868 868 867 866 866 865 865 864 864 863 863 863 862 862 861 861 860 860 860 859
866 866 867 867 868 868 869 869 870 870 871 871 871 872 872 872 872 872 873 873 874 874 874 874 874 874 874 875 875 875 875 875 875 875 875 875 874 874 874 874 873 873 873 873 873 873 873 873 873 872 872 872 872 872 872 871 871 871 871 870 870 870 869 869 868 867 867 866 866 865 864 864 863 863 862 862 862 861 861 861 860 860 860 859 859
867 868 868 868 869 869 870 870 871 871 872 872 873 873 873 873 873 873 873 874 874 874 875 875 875 875 875 875 875 875 875 875 876 875 875 875 875 875 874 874 874 874 873 873 873 873 873 873 872 872 872 872 872 871 871 871 871 870 870 870 869 869 869 868 867 867 866 866 865 864 864 863 863 862 862 861 861 861 860 860 859 859 859 858 858
868 868 868 869 869 870 870 871 872 872 872 873 873 874 873 873 874 874 874 874 874 874 875 875 875 875 875 875 875 876 876 876 876 875 875 875 875 875 875 875 874 874 874 873 873 873 873 872 872 872 872 872 871 871 871 870 870 870 870 869 869 868 868 868 867 867 866 865 865 864 863 863 862 862 861 861 860 860 860 859 859 858 858 857 857
869 869 869 870 870 871 871 872 872 873 873 873 874 874 874 874 874 874 874 874 874 874 875 875 875 876 876 876 876 876 876 876 876 875 876 876 875 875 875 875 875 874 874 874 873 873 873 872 872 872 872 872 871 871 871 870 870 870 870 869 869 868 868 867 867 866 866 865 865 864 863 863 862 862 861 861 860 860 859 859 858 858 857 857 856
870 870 870 871 871 872 872 872 873 873 874 874 874 875 874 875 875 875 875 875 875 875 876 875 875 876 876 876 876 876 876 876 876 876 876 876 876 876 875 875 875 875 874 874 874 873 873 873 872 872 872 872 871 871 871 870 870 870 869 869 868 868 868 867 867 866 866 865 865 864 863 863 862 862 861 861 860 859 859 858 858 857 857 856 856
870 871 871 871 872 872 873 873 874 874 874 875 875 875 875 875 875 875 875 875 875 876 876 876 876 876 876 877 876 876 875 875 876 876 876 876 875 876 875 875 875 875 875 874 874 874 873 873 873 873 872 872 872 871 871 870 870 870 869 869 868 868 868 867 867 866 866 865 865 864 864 863 862 862 861 860 860 859 859 858 857 857 856 855 855
871 871 872 872 872 873 874 874 874 875 875 875 875 875 875 875 876 876 876 876 876 876 877 877 877 877 877 877 877 876 876 876 876 876 876 875 875 875 875 875 875 875 875 874 874 874 873 873 873 873 873 872 872 872 871 871 870 870 869 869 868 868 868 867 867 866 866 865 865 864 864 863 862 862 861 860 859 859 858 857 857 856 855 854 854
871 872 872 873 873 873 874 874 875 875 875 875 875 876 876 876 876 876 877 877 877 877 877 877 877 877 877 877 877 877 877 877 877 876 876 875 875 875 875 875 875 875 875 874 874 874 873 873 873 873 873 873 872 872 872 871 870 870 870 869 869 868 868 867 867 866 866 865 865 864 864 863 862 861 860 860 859 858 857 856 855 855 854 853 852
872 872 873 873 874 874 874 875 875 875 876 876 876 876 876 877 877 877 877 878 878 877 878 877 877 878 878 878 878 877 878 877 877 876 876 876 875 875 875 875 875 875 874 874 874 874 873 874 873 873 873 873 873 872 872 871 871 870 870 869 869 869 868 868 867 866 866 865 865 864 863 863 862 861 860 859 858 857 856 855 854 853 852 851 851
872 872 873 874 874 874 874 875 875 876 876 876 877 877 877 877 877 878 878 878 878 878 878 878 878 878 878 879 879 878 878 877 877 877 876 876 876 875 875 875 875 875 874 874 874 874 873 873 874 873 873 873 873 873 872 872 871 871 870 870 869 869 868 868 867 866 866 865 864 864 863 862 861 860 859 858 857 856 855 854 853 852 851 850 849
872 873 873 874 874 875 875 875 876 876 876 876 877 877 877 878 878 879 879 879 879 878 879 879 879 879 879 881 880 880 879 877 876 876 875 876 875 875 875 875 875 875 875 874 874 873 873 873 873 873 873 873 873 873 872 872 871 871 870 870 869 869 868 868 867 866 866 865 864 863 862 862 861 860 859 858 857 856 855 854 853 852 850 849 849
872 873 874 874 875 875 875 876 876 876 877 877 877 877 878 878 879 879 879 879 879 879 879 879 879 879 880 882 881 882 884 879 875 875 874 875 874 874 875 874 875 875 875 874 874 874 874 874 873 873 873 873 873 873 872 872 871 871 870 870 869 869 868 867 867 866 865 865 864 863 862 861 860 859 858 857 856 855 854 853 852 851 850 849 848
872 873 874 874 875 875 876 876 876 877 877 877 877 878 878 879 879 880 880 880 879 879 879 879 879 879 880 881 882 885 884 878 876 875 873 873 874 874 874 874 875 875 874 874 874 874 874 874 874 874 873 873 873 873 872 872 871 871 870 870 869 869 868 867 867 866 865 864 863 863 862 861 860 859 858 857 856 855 854 853 852 850 849 848 847
872 873 874 874 875 875 876 876 876 877 877 877 878 878 878 879 880 880 880 880 879 879 879 879 879 879 879 879 881 882 880 877 878 877 873 873 873 874 874 874 875 875 874 874 874 874 874 874 873 873 873 873 873 873 872 872 871 871 870 870 869 868 868 867 866 866 865 864 863 863 862 861 860 859 858 857 856 855 854 852 851 850 849 848 847
871 872 873 874 875 875 876 876 877 877 877 878 878 878 879 879 880 880 880 880 880 879 879 879 879 879 879 879 878 878 878 877 878 878 877 875 873 874 874 874 875 875 874 874 874 874 874 874 873 873 873 873 873 873 872 871 871 870 870 869 869 868 868 867 866 866 865 864 864 863 862 861 860 859 858 857 855 854 853 852 850 849 848 847 846
871 872 872 873 874 875 875 876 876 877 877 878 878 879 879 879 880 880 880 880 880 880 880 880 880 879 879 879 878 878 877 877 876 876 877 878 876 874 874 874 875 874 874 874 874 874 874 873 873 873 873 873 873 873 872 871 871 870 870 869 869 868 868 867 866 866 865 865 864 863 862 861 860 859 857 856 855 854 852 851 850 849 848 847 846
871 871 872 873 873 874 875 875 876 876 877 877 878 879 879 879 879 880 880 880 880 880 880 880 880 880 879 879 878 878 877 877 876 875 875 877 878 875 874 874 875 874 874 874 874 874 873 873 873 874 874 873 873 872 872 871 871 870 870 869 869 869 868 868 867 866 866 865 864 863 862 861 860 858 857 856 855 853 852 851 850 849 848 847 846
871 871 872 873 873 874 874 875 875 876 877 877 878 879 879 879 879 879 880 880 880 880 880 881 880 880 880 880 879 879 878 877 877 876 875 876 877 875 874 874 874 874 873 873 874 873 873 873 874 874 873 873 873 872 872 871 871 871 870 870 870 869 869 868 867 866 866 865 864 863 862 861 859 858 857 856 855 853 852 851 850 849 848 847 846
870 871 872 872 873 873 874 874 875 876 876 877 878 878 878 879 879 879 879 879 880 880 880 881 881 881 880 880 880 879 879 878 877 877 877 876 877 876 874 874 874 874 873 873 873 873 873 873 873 873 873 873 872 872 872 871 871 871 871 870 870 870 869 868 868 867 866 865 864 863 861 860 859 858 857 855 854 853 852 851 850 849 848 847 846
869 870 871 872 873 873 874 874 875 875 876 877 877 878 878 878 879 879 879 879 880 880 880 881 881 881 881 881 881 880 880 879 878 878 878 877 877 876 875 874 875 874 873 873 874 874 873 873 873 873 873 873 872 872 872 872 872 872 871 871 870 870 869 868 868 867 866 865 864 862 861 860 859 858 856 855 854 853 852 851 850 849 848 847 846
868 869 870 871 872 873 873 874 874 875 876 876 877 877 878 878 878 879 879 879 880 880 880 881 881 881 881 881 881 881 880 879 879 879 878 878 877 877 876 875 875 874 874 874 874 874 874 873 873 873 873 873 873 873 872 872 872 872 871 871 870 870 869 868 868 867 866 864 863 862 861 860 859 858 856 855 854 853 852 851 850 849 848 847 845
867 868 869 870 871 872 873 873 874 875 875 876 877 877 877 878 878 878 879 879 879 880 880 880 881 881 881 881 881 881 881 880 879 879 878 878 877 877 876 876 875 874 874 874 874 874 874 874 874 874 874 874 874 873 873 872 872 872 872 871 871 870 869 868 867 866 866 865 863 862 861 860 859 858 856 855 854 852 851 850 849 849 848 847 845
867 868 869 870 870 871 872 873 874 874 875 876 876 877 877 877 878 878 879 879 879 880 880 880 881 881 881 881 881 881 881 881 880 879 878 878 877 877 877 877 877 876 875 874 874 874 874 875 875 875 875 875 875 874 873 873 873 872 872 871 870 870 869 868 867 867 866 865 864 863 862 861 859 858 856 855 853 852 851 850 849 848 847 846 845
866 867 868 869 870 871 872 872 873 874 874 875 876 876 877 877 877 878 878 879 879 879 880 880 880 881 881 881 881 881 881 881 880 880 879 879 878 878 877 877 879 880 878 876 875 875 875 875 875 876 876 876 875 875 874 874 873 873 872 871 870 870 869 868 868 867 866 865 864 863 861 860 859 858 857 855 853 852 851 850 849 848 847 846 845
866 867 867 868 869 870 871 872 872 873 874 874 875 876 876 876 877 877 878 878 879 879 879 880 880 880 880 881 881 880 880 881 881 880 880 879 879 879 878 878 878 880 881 881 878 875 876 876 876 876 876 876 876 875 875 874 873 873 872 871 870 870 869 869 868 867 866 865 863 862 861 860 859 858 857 855 853 852 851 850 849 848 847 846 845
865 865 867 867 868 869 870 871 871 872 873 873 874 875 875 876 876 877 877 878 878 878 879 879 879 880 880 880 880 880 880 880 880 880 880 880 879 879 879 878 878 878 879 881 879 876 876 876 876 876 876 876 876 875 874 874 873 873 872 871 870 870 869 868 867 866 865 864 863 862 860 859 858 858 857 855 854 852 851 850 849 848 847 846 845
864 864 865 866 867 868 869 870 870 871 872 872 873 874 874 875 875 876 877 877 877 878 878 878 878 879 879 879 879 879 879 879 880 880 879 879 879 879 878 878 878 878 877 879 880 878 877 876 876 876 876 875 875 875 874 874 873 873 872 871 870 870 869 868 867 866 865 864 862 861 860 859 858 857 856 855 854 852 851 850 849 848 847 846 845
863 863 864 864 865 866 867 868 869 869 870 871 872 872 873 874 874 875 875 876 876 877 877 877 878 878 878 878 878 878 879 879 879 879 879 879 879 878 879 878 878 878 877 878 878 877 876 876 876 876 876 875 875 874 874 873 873 872 872 871 870 869 869 868 867 866 864 863 862 861 859 858 857 856 856 855 854 853 851 850 849 848 847 846 845
863 863 863 863 864 865 866 866 867 868 869 869 870 871 872 872 873 873 874 875 875 875 876 876 876 877 877 877 877 878 878 878 878 879 879 879 879 878 878 878 878 878 877 877 877 876 875 876 876 875 875 874 874 874 873 873 872 871 871 870 870 869 868 866 865 865 863 862 861 860 859 858 857 856 855 855 854 852 851 850 849 848 847 846 845
862 862 863 863 863 863 864 865 865 866 867 868 869 869 870 871 871 872 872 873 874 874 874 875 875 875 876 876 876 877 877 877 878 878 878 878 878 878 878 878 877 877 877 877 876 875 874 874 874 874 874 873 873 873 872 871 871 870 869 869 868 867 866 865 864 863 862 861 860 859 858 857 856 855 854 854 853 852 851 849 848 847 847 846 844
861 861 862 862 862 863 863 863 864 864 865 866 867 868 868 869 870 870 871 871 872 873 873 873 873 874 874 875 875 876 876 876 876 877 877 878 878 878 877 877 877 876 876 876 876 875 874 873 873 873 872 872 871 871 871 870 869 869 868 867 866 865 864 863 862 861 860 860 859 858 857 856 855 854 853 853 852 851 850 849 848 847 846 845 844
859 860 861 861 861 862 862 862 862 863 863 864 866 866 867 868 868 869 869 870 870 871 871 871 872 872 873 873 873 874 875 875 875 876 876 876 877 877 877 876 876 876 876 875 875 875 874 873 872 872 871 871 870 869 869 868 868 867 866 865 864 863 862 862 861 859 859 858 857 856 856 855 854 853 852 851 851 850 848 848 847 846 845 844 843
857 858 859 859 860 860 860 861 861 861 862 863 864 864 865 866 867 868 868 868 869 869 869 870 870 871 871 871 872 873 873 873 874 874 875 875 875 875 875 875 875 875 875 875 874 874 873 872 871 871 870 870 869 868 868 867 866 865 864 863 862 861 860 860 859 858 857 856 855 855 854 853 852 852 851 850 849 848 847 846 845 844 843 843 842
856 856 857 858 858 858 859 859 860 860 861 861 862 863 864 865 865 866 867 867 867 867 868 868 868 869 869 869 870 871 871 872 872 873 873 873 874 874 874 874 874 874 874 874 873 873 872 871 870 870 869 868 867 866 866 866 865 863 862 861 860 859 859 857 857 856 855 854 854 853 852 851 851 850 849 848 847 846 845 844 843 843 842 841 840
854 855 855 856 857 857 857 858 858 858 859 859 860 860 861 862 863 864 864 865 865 866 866 866 866 867 867 868 868 869 869 870 870 871 871 872 872 872 872 872 872 872 872 872 872 872 871 870 869 868 867 867 866 865 864 864 863 862 860 859 857 857 856 855 854 853 853 852 851 851 850 849 849 848 847 846 845 844 843 842 841 841 840 839 838
852 852 853 854 855 855 856 856 856 856 857 857 857 858 859 859 860 861 862 863 863 863 864 864 865 865 865 866 866 867 867 868 868 869 869 870 870 870 870 870 871 870 870 870 870 870 869 868 868 867 866 865 864 863 862 862 860 859 858 858 856 854 854 853 852 851 850 849 848 848 848 847 847 846 845 843 842 842 841 840 839 839 838 837 836
850 850 850 851 852 852 853 853 854 854 854 854 854 855 855 856 857 858 859 860 860 861 862 862 863 863 863 864 864 864 865 865 866 867 867 867 868 868 868 868 868 868 868 868 868 867 867 866 865 865 864 863 862 861 860 859 858 857 856 856 854 852 851 850 849 849 848 847 846 845 845 845 844 844 843 841 840 839 838 838 837 836 835 835 834
848 848 849 849 849 849 849 850 850 851 851 851 851 852 852 853 853 854 855 856 857 858 859 860 861 861 861 862 862 862 863 863 864 864 864 865 865 865 866 866 866 866 866 866 865 865 864 864 863 862 862 861 859 859 857 856 855 855 853 853 852 850 849 847 846 846 846 845 843 842 842 842 842 841 840 838 837 837 836 835 834 833 833 832 832
847 846 847 847 846 846 846 847 847 847 848 848 848 849 849 850 850 851 852 853 854 855 856 857 858 858 859 859 859 860 861 861 861 862 862 862 863 863 863 863 863 863 863 863 862 862 862 861 860 860 859 857 856 856 855 854 853 852 851 851 850 849 848 846 844 843 844 843 842 840 838 839 839 837 836 835 835 834 833 832 831 831 830 830 830
845 844 844 844 843 844 844 844 845 845 845 845 846 846 847 847 848 848 849 850 851 852 853 854 855 856 856 857 857 857 858 858 859 859 859 860 860 860 860 860 860 860 860 860 859 859 859 858 857 856 855 854 853 853 853 851 850 850 850 849 848 847 846 845 843 841 842 842 841 839 836 835 835 835 832 832 832 831 830 830 829 829 828 828 827
842 842 842 842 841 841 841 842 842 843 843 843 843 843 844 845 846 846 847 848 848 849 850 851 852 853 853 854 854 854 855 855 856 856 857 857 857 857 857 857 857 857 857 857 856 856 856 855 854 853 852 852 850 849 850 849 849 848 847 846 846 846 845 844 842 840 840 840 840 838 835 832 832 832 830 828 828 828 827 827 827 826 826 825 825
839 839 839 839 839 840 840 840 840 840 840 841 841 841 841 842 844 845 845 846 847 847 847 848 848 849 850 850 851 851 851 852 853 853 854 854 854 854 854 854 853 853 853 853 853 853 853 852 851 849 849 849 847 846 847 848 847 846 845 844 844 844 843 842 841 840 839 838 837 836 834 831 830 830 827 825 825 825 824 824 824 824 823 823 822
836 836 836 837 837 837 838 838 838 837 837 837 838 838 839 840 842 842 843 844 844 844 844 844 845 845 846 846 847 847 848 848 849 850 850 851 851 851 851 850 850 849 849 849 849 849 849 849 847 846 845 845 844 843 844 845 844 844 843 842 842 841 841 839 839 838 836 835 835 834 832 829 829 828 825 823 823 822 821 821 821 820 820 820 820
834 834 834 834 834 834 835 836 835 835 834 834 834 835 837 839 840 840 840 840 840 840 840 841 841 841 842 843 843 843 844 844 845 846 847 848 848 847 847 846 846 845 844 845 845 845 845 844 843 842 842 842 842 841 841 842 842 842 841 839 839 838 837 836 836 834 832 832 832 831 829 827 827 825 823 821 821 820 819 818 818 818 818 817 817
832 832 832 832 832 832 832 832 832 831 831 832 833 833 834 835 836 837 836 836 836 836 836 837 838 838 839 839 839 840 840 840 841 842 843 844 844 843 843 842 841 840 840 841 841 841 841 840 839 839 838 838 838 838 838 839 839 839 838 836 835 835 834 833 832 830 829 828 828 828 827 825 823 823 821 820 820 818 817 816 816 815 815 815 815
830 830 830 830 830 830 830 830 829 829 829 830 831 831 832 832 832 832 832 832 832 833 833 833 834 834 835 835 836 837 836 837 838 838 839 840 840 839 839 838 837 836 836 837 838 836 836 836 835 835 835 834 834 834 834 835 835 835 834 832 832 831 830 829 828 826 825 824 823 824 824 821 820 821 820 818 817 816 814 814 813 813 812 812 812
829 829 829 828 828 828 828 828 827 827 828 828 828 829 829 829 829 829 830 830 830 830 830 830 831 831 831 832 832 833 833 833 834 834 835 836 836 836 835 835 833 831 832 834 834 833 833 832 831 831 831 831 831 830 830 830 830 830 829 827 827 827 825 824 824 824 823 819 817 820 820 817 817 818 817 816 815 813 812 811 811 810 810 809 809